Data supplied by UK-AIR on 15/3/2023
All Data GMT hour ending 
Status: R =Ratified P=Provisional,P*=As supplied
,,Cardiff Newport Road,,,,,,,,,,,,,,,,,,,,,,,
Date,time,"PM<sub>10</sub> particulate matter (Hourly measured)",status,unit,"Nitric oxide",status,unit,"Nitrogen dioxide",status,unit,"Nitrogen oxides as nitrogen dioxide",status,unit
 
01-01-2022,01:00,66.668,R,ugm-3 (Ref.eq),19.44673,R,ugm-3,33.42282,R,ugm-3,63.24072,R,ugm-3
01-01-2022,02:00,25.121,R,ugm-3 (Ref.eq),0.59186,R,ugm-3,3.65156,R,ugm-3,4.55906,R,ugm-3
01-01-2022,03:00,23.189,R,ugm-3 (Ref.eq),0.31707,R,ugm-3,2.64005,R,ugm-3,3.12622,R,ugm-3
01-01-2022,04:00,26.087,R,ugm-3 (Ref.eq),8.59250,R,ugm-3,14.86327,R,ugm-3,28.03824,R,ugm-3
01-01-2022,05:00,23.189,R,ugm-3 (Ref.eq),3.01213,R,ugm-3,9.25404,R,ugm-3,13.87258,R,ugm-3
01-01-2022,06:00,20.290,R,ugm-3 (Ref.eq),5.07306,R,ugm-3,10.58793,R,ugm-3,18.36651,R,ugm-3
01-01-2022,07:00,23.189,R,ugm-3 (Ref.eq),0.66584,R,ugm-3,3.32645,R,ugm-3,4.34739,R,ugm-3
01-01-2022,08:00,22.223,R,ugm-3 (Ref.eq),0.53901,R,ugm-3,5.37711,R,ugm-3,6.20358,R,ugm-3
01-01-2022,09:00,21.256,R,ugm-3 (Ref.eq),0.41219,R,ugm-3,5.66927,R,ugm-3,6.30128,R,ugm-3
01-01-2022,10:00,27.054,R,ugm-3 (Ref.eq),1.77557,R,ugm-3,8.36579,R,ugm-3,11.08829,R,ugm-3
01-01-2022,11:00,27.054,R,ugm-3 (Ref.eq),1.29997,R,ugm-3,7.82501,R,ugm-3,9.81827,R,ugm-3
01-01-2022,12:00,34.783,R,ugm-3 (Ref.eq),1.45851,R,ugm-3,9.24273,R,ugm-3,11.47907,R,ugm-3
01-01-2022,13:00,35.749,R,ugm-3 (Ref.eq),1.23656,R,ugm-3,9.82728,R,ugm-3,11.72331,R,ugm-3
01-01-2022,14:00,33.817,R,ugm-3 (Ref.eq),1.68045,R,ugm-3,14.86176,R,ugm-3,17.43842,R,ugm-3
01-01-2022,15:00,31.885,R,ugm-3 (Ref.eq),1.20485,R,ugm-3,15.98178,R,ugm-3,17.82920,R,ugm-3
01-01-2022,16:00,34.783,R,ugm-3 (Ref.eq),1.14144,R,ugm-3,19.05869,R,ugm-3,20.80887,R,ugm-3
01-01-2022,17:00,29.952,R,ugm-3 (Ref.eq),5.19989,R,ugm-3,18.99056,R,ugm-3,26.96360,R,ugm-3
01-01-2022,18:00,27.054,R,ugm-3 (Ref.eq),2.21946,R,ugm-3,14.47491,R,ugm-3,17.87804,R,ugm-3
01-01-2022,19:00,34.783,R,ugm-3 (Ref.eq),1.23656,R,ugm-3,12.31848,R,ugm-3,14.21451,R,ugm-3
01-01-2022,20:00,32.851,R,ugm-3 (Ref.eq),0.85608,R,ugm-3,15.05115,R,ugm-3,16.36378,R,ugm-3
01-01-2022,21:00,35.749,R,ugm-3 (Ref.eq),1.23656,R,ugm-3,15.29815,R,ugm-3,17.19418,R,ugm-3
01-01-2022,22:00,31.885,R,ugm-3 (Ref.eq),1.36339,R,ugm-3,13.83366,R,ugm-3,15.92416,R,ugm-3
01-01-2022,23:00,23.189,R,ugm-3 (Ref.eq),3.96333,R,ugm-3,15.70879,R,ugm-3,21.78581,R,ugm-3
01-01-2022,24:00,28.020,R,ugm-3 (Ref.eq),0.25365,R,ugm-3,8.59894,R,ugm-3,8.98787,R,ugm-3
02-01-2022,01:00,27.054,R,ugm-3 (Ref.eq),1.35524,R,ugm-3,6.72415,R,ugm-3,8.80216,R,ugm-3
02-01-2022,02:00,26.087,R,ugm-3 (Ref.eq),0.59292,R,ugm-3,2.67694,R,ugm-3,3.58607,R,ugm-3
02-01-2022,03:00,28.986,R,ugm-3 (Ref.eq),1.27054,R,ugm-3,3.72437,R,ugm-3,5.67250,R,ugm-3
02-01-2022,04:00,10.628,R,ugm-3 (Ref.eq),0.50822,R,ugm-3,1.51909,R,ugm-3,2.29834,R,ugm-3
02-01-2022,05:00,11.594,R,ugm-3 (Ref.eq),0.38116,R,ugm-3,0.29578,R,ugm-3,0.88022,R,ugm-3
02-01-2022,06:00,13.527,R,ugm-3 (Ref.eq),0.34940,R,ugm-3,0.63788,R,ugm-3,1.17362,R,ugm-3
02-01-2022,07:00,15.459,R,ugm-3 (Ref.eq),0.31764,R,ugm-3,0.97999,R,ugm-3,1.46703,R,ugm-3
02-01-2022,08:00,11.594,R,ugm-3 (Ref.eq),0.47645,R,ugm-3,5.67547,R,ugm-3,6.40602,R,ugm-3
02-01-2022,09:00,10.628,R,ugm-3 (Ref.eq),0.44469,R,ugm-3,8.65822,R,ugm-3,9.34007,R,ugm-3
02-01-2022,10:00,8.696,R,ugm-3 (Ref.eq),0.60351,R,ugm-3,10.51744,R,ugm-3,11.44281,R,ugm-3
02-01-2022,11:00,10.628,R,ugm-3 (Ref.eq),2.09639,R,ugm-3,12.18936,R,ugm-3,15.40378,R,ugm-3
02-01-2022,12:00,12.561,R,ugm-3 (Ref.eq),1.61994,R,ugm-3,9.54575,R,ugm-3,12.02962,R,ugm-3
02-01-2022,13:00,19.324,R,ugm-3 (Ref.eq),1.65170,R,ugm-3,11.79539,R,ugm-3,14.32796,R,ugm-3
02-01-2022,14:00,9.662,R,ugm-3 (Ref.eq),1.46112,R,ugm-3,10.42497,R,ugm-3,12.66533,R,ugm-3
02-01-2022,15:00,18.358,R,ugm-3 (Ref.eq),1.74699,R,ugm-3,7.05259,R,ugm-3,9.73128,R,ugm-3
02-01-2022,16:00,21.256,R,ugm-3 (Ref.eq),1.46112,R,ugm-3,5.97499,R,ugm-3,8.21535,R,ugm-3
02-01-2022,17:00,25.121,R,ugm-3 (Ref.eq),0.92114,R,ugm-3,5.18922,R,ugm-3,6.60162,R,ugm-3
02-01-2022,18:00,26.087,R,ugm-3 (Ref.eq),0.63527,R,ugm-3,4.40503,R,ugm-3,5.37910,R,ugm-3
02-01-2022,19:00,32.851,R,ugm-3 (Ref.eq),0.92114,R,ugm-3,4.60241,R,ugm-3,6.01481,R,ugm-3
02-01-2022,20:00,32.851,R,ugm-3 (Ref.eq),0.76232,R,ugm-3,4.30802,R,ugm-3,5.47690,R,ugm-3
02-01-2022,21:00,37.682,R,ugm-3 (Ref.eq),0.63527,R,ugm-3,3.76932,R,ugm-3,4.74339,R,ugm-3
02-01-2022,22:00,30.918,R,ugm-3 (Ref.eq),1.42936,R,ugm-3,3.67646,R,ugm-3,5.86811,R,ugm-3
02-01-2022,23:00,36.716,R,ugm-3 (Ref.eq),0.50822,R,ugm-3,3.37732,R,ugm-3,4.15658,R,ugm-3
02-01-2022,24:00,25.121,R,ugm-3 (Ref.eq),0.57174,R,ugm-3,2.74201,R,ugm-3,3.61867,R,ugm-3
03-01-2022,01:00,31.885,R,ugm-3 (Ref.eq),0.46670,R,ugm-3,1.43841,R,ugm-3,2.15401,R,ugm-3
03-01-2022,02:00,20.290,R,ugm-3 (Ref.eq),0.42427,R,ugm-3,0.91601,R,ugm-3,1.56655,R,ugm-3
03-01-2022,03:00,25.121,R,ugm-3 (Ref.eq),0.22274,R,ugm-3,0.88233,R,ugm-3,1.22387,R,ugm-3
03-01-2022,04:00,29.952,R,ugm-3 (Ref.eq),0.31820,R,ugm-3,2.93892,R,ugm-3,3.42683,R,ugm-3
03-01-2022,05:00,24.155,R,ugm-3 (Ref.eq),0.25456,R,ugm-3,1.51891,R,ugm-3,1.90923,R,ugm-3
03-01-2022,06:00,31.885,R,ugm-3 (Ref.eq),0.44548,R,ugm-3,3.08644,R,ugm-3,3.76951,R,ugm-3
03-01-2022,07:00,22.223,R,ugm-3 (Ref.eq),0.35002,R,ugm-3,2.25372,R,ugm-3,2.79042,R,ugm-3
03-01-2022,08:00,19.324,R,ugm-3 (Ref.eq),0.54095,R,ugm-3,4.21289,R,ugm-3,5.04233,R,ugm-3
03-01-2022,09:00,26.087,R,ugm-3 (Ref.eq),0.47731,R,ugm-3,5.43643,R,ugm-3,6.16829,R,ugm-3
03-01-2022,10:00,28.986,R,ugm-3 (Ref.eq),2.10014,R,ugm-3,6.61971,R,ugm-3,9.83989,R,ugm-3
03-01-2022,11:00,24.155,R,ugm-3 (Ref.eq),0.89097,R,ugm-3,6.95616,R,ugm-3,8.32229,R,ugm-3
03-01-2022,12:00,21.256,R,ugm-3 (Ref.eq),3.11839,R,ugm-3,7.26137,R,ugm-3,12.04285,R,ugm-3
03-01-2022,13:00,24.155,R,ugm-3 (Ref.eq),1.24099,R,ugm-3,6.07678,R,ugm-3,7.97961,R,ugm-3
03-01-2022,14:00,25.121,R,ugm-3 (Ref.eq),1.30464,R,ugm-3,7.64366,R,ugm-3,9.64407,R,ugm-3
03-01-2022,15:00,25.121,R,ugm-3 (Ref.eq),1.08189,R,ugm-3,7.39773,R,ugm-3,9.05661,R,ugm-3
03-01-2022,16:00,27.054,R,ugm-3 (Ref.eq),1.36827,R,ugm-3,9.94485,R,ugm-3,12.04285,R,ugm-3
03-01-2022,17:00,28.986,R,ugm-3 (Ref.eq),1.30464,R,ugm-3,14.30149,R,ugm-3,16.30190,R,ugm-3
03-01-2022,18:00,16.425,R,ugm-3 (Ref.eq),22.27424,R,ugm-3,33.30616,R,ugm-3,67.45952,R,ugm-3
03-01-2022,19:00,13.527,R,ugm-3 (Ref.eq),0.79551,R,ugm-3,13.17291,R,ugm-3,14.39267,R,ugm-3
03-01-2022,20:00,26.087,R,ugm-3 (Ref.eq),4.90033,R,ugm-3,26.02020,R,ugm-3,33.53394,R,ugm-3
03-01-2022,21:00,13.527,R,ugm-3 (Ref.eq),0.85915,R,ugm-3,12.19414,R,ugm-3,13.51149,R,ugm-3
03-01-2022,22:00,23.189,R,ugm-3 (Ref.eq),1.24099,R,ugm-3,14.98653,R,ugm-3,16.88936,R,ugm-3
03-01-2022,23:00,12.561,R,ugm-3 (Ref.eq),2.03650,R,ugm-3,12.20021,R,ugm-3,15.32281,R,ugm-3
03-01-2022,24:00,17.392,R,ugm-3 (Ref.eq),2.13196,R,ugm-3,11.41743,R,ugm-3,14.68640,R,ugm-3
04-01-2022,01:00,9.662,R,ugm-3 (Ref.eq),2.72019,R,ugm-3,12.49197,R,ugm-3,16.66287,R,ugm-3
04-01-2022,02:00,12.561,R,ugm-3 (Ref.eq),1.02007,R,ugm-3,13.79189,R,ugm-3,15.35598,R,ugm-3
04-01-2022,03:00,10.628,R,ugm-3 (Ref.eq),0.82881,R,ugm-3,14.80395,R,ugm-3,16.07477,R,ugm-3
04-01-2022,04:00,7.730,R,ugm-3 (Ref.eq),0.47816,R,ugm-3,6.66711,R,ugm-3,7.40027,R,ugm-3
04-01-2022,05:00,7.730,R,ugm-3 (Ref.eq),0.54191,R,ugm-3,6.03026,R,ugm-3,6.86118,R,ugm-3
04-01-2022,06:00,6.763,R,ugm-3 (Ref.eq),0.54191,R,ugm-3,3.13876,R,ugm-3,3.96968,R,ugm-3
04-01-2022,07:00,7.730,R,ugm-3 (Ref.eq),3.85714,R,ugm-3,11.58181,R,ugm-3,17.49601,R,ugm-3
04-01-2022,08:00,4.831,R,ugm-3 (Ref.eq),10.99764,R,ugm-3,21.46178,R,ugm-3,38.32459,R,ugm-3
04-01-2022,09:00,5.797,R,ugm-3 (Ref.eq),14.40850,R,ugm-3,20.34858,R,ugm-3,42.44130,R,ugm-3
04-01-2022,10:00,3.865,R,ugm-3 (Ref.eq),14.95041,R,ugm-3,25.98677,R,ugm-3,48.91041,R,ugm-3
04-01-2022,11:00,4.831,R,ugm-3 (Ref.eq),16.95867,R,ugm-3,30.06271,R,ugm-3,56.06564,R,ugm-3
04-01-2022,12:00,8.696,R,ugm-3 (Ref.eq),16.32113,R,ugm-3,19.76832,R,ugm-3,44.79370,R,ugm-3
04-01-2022,13:00,16.425,R,ugm-3 (Ref.eq),14.95041,R,ugm-3,19.66469,R,ugm-3,42.58833,R,ugm-3
04-01-2022,14:00,18.358,R,ugm-3 (Ref.eq),13.80283,R,ugm-3,16.27840,R,ugm-3,37.44244,R,ugm-3
04-01-2022,15:00,19.324,R,ugm-3 (Ref.eq),16.12987,R,ugm-3,23.98226,R,ugm-3,48.71438,R,ugm-3
04-01-2022,16:00,19.324,R,ugm-3 (Ref.eq),18.96694,R,ugm-3,31.68822,R,ugm-3,60.77045,R,ugm-3
04-01-2022,17:00,19.324,R,ugm-3 (Ref.eq),23.87603,R,ugm-3,42.00012,R,ugm-3,78.60952,R,ugm-3
04-01-2022,18:00,17.392,R,ugm-3 (Ref.eq),23.14285,R,ugm-3,37.43933,R,ugm-3,72.92454,R,ugm-3
04-01-2022,19:00,15.459,R,ugm-3 (Ref.eq),16.12987,R,ugm-3,36.62644,R,ugm-3,61.35855,R,ugm-3
04-01-2022,20:00,18.358,R,ugm-3 (Ref.eq),14.28099,R,ugm-3,34.80554,R,ugm-3,56.70275,R,ugm-3
04-01-2022,21:00,5.797,R,ugm-3 (Ref.eq),4.36718,R,ugm-3,18.59211,R,ugm-3,25.28835,R,ugm-3
04-01-2022,22:00,9.662,R,ugm-3 (Ref.eq),2.64581,R,ugm-3,19.51621,R,ugm-3,23.57305,R,ugm-3
04-01-2022,23:00,11.594,R,ugm-3 (Ref.eq),1.02007,R,ugm-3,21.51888,R,ugm-3,23.08297,R,ugm-3
04-01-2022,24:00,16.425,R,ugm-3 (Ref.eq),1.84888,R,ugm-3,12.84779,R,ugm-3,15.68270,R,ugm-3
05-01-2022,01:00,14.493,R,ugm-3 (Ref.eq),0.46837,R,ugm-3,6.01972,R,ugm-3,6.73788,R,ugm-3
05-01-2022,02:00,15.459,R,ugm-3 (Ref.eq),0.85158,R,ugm-3,5.49756,R,ugm-3,6.80329,R,ugm-3
05-01-2022,03:00,7.730,R,ugm-3 (Ref.eq),1.18156,R,ugm-3,5.69482,R,ugm-3,7.50652,R,ugm-3
05-01-2022,04:00,13.527,R,ugm-3 (Ref.eq),0.73448,R,ugm-3,6.23314,R,ugm-3,7.35933,R,ugm-3
05-01-2022,05:00,13.527,R,ugm-3 (Ref.eq),0.44708,R,ugm-3,4.46602,R,ugm-3,5.15153,R,ugm-3
05-01-2022,06:00,13.527,R,ugm-3 (Ref.eq),0.57481,R,ugm-3,7.16483,R,ugm-3,8.04620,R,ugm-3
05-01-2022,07:00,11.594,R,ugm-3 (Ref.eq),0.92609,R,ugm-3,13.05337,R,ugm-3,14.47335,R,ugm-3
05-01-2022,08:00,13.527,R,ugm-3 (Ref.eq),2.96987,R,ugm-3,24.09859,R,ugm-3,28.65233,R,ugm-3
05-01-2022,09:00,12.561,R,ugm-3 (Ref.eq),9.70796,R,ugm-3,27.74973,R,ugm-3,42.63505,R,ugm-3
05-01-2022,10:00,14.493,R,ugm-3 (Ref.eq),7.08936,R,ugm-3,34.02171,R,ugm-3,44.89192,R,ugm-3
05-01-2022,11:00,17.392,R,ugm-3 (Ref.eq),6.99356,R,ugm-3,26.31865,R,ugm-3,37.04196,R,ugm-3
05-01-2022,12:00,18.358,R,ugm-3 (Ref.eq),6.48262,R,ugm-3,18.07465,R,ugm-3,28.01452,R,ugm-3
05-01-2022,13:00,19.324,R,ugm-3 (Ref.eq),7.44064,R,ugm-3,16.21320,R,ugm-3,27.62202,R,ugm-3
05-01-2022,14:00,27.054,R,ugm-3 (Ref.eq),13.44424,R,ugm-3,23.78708,R,ugm-3,44.40129,R,ugm-3
05-01-2022,15:00,17.392,R,ugm-3 (Ref.eq),22.28998,R,ugm-3,35.19646,R,ugm-3,69.37395,R,ugm-3
05-01-2022,16:00,13.527,R,ugm-3 (Ref.eq),32.70048,R,ugm-3,56.86462,R,ugm-3,107.00466,R,ugm-3
05-01-2022,17:00,10.628,R,ugm-3 (Ref.eq),27.11202,R,ugm-3,53.95292,R,ugm-3,95.52411,R,ugm-3
05-01-2022,18:00,16.425,R,ugm-3 (Ref.eq),29.89029,R,ugm-3,63.67570,R,ugm-3,109.50684,R,ugm-3
05-01-2022,19:00,15.459,R,ugm-3 (Ref.eq),60.61086,R,ugm-3,67.44899,R,ugm-3,160.38434,R,ugm-3
05-01-2022,20:00,20.290,R,ugm-3 (Ref.eq),37.23512,R,ugm-3,66.59276,R,ugm-3,123.68581,R,ugm-3
05-01-2022,21:00,28.020,R,ugm-3 (Ref.eq),41.51428,R,ugm-3,68.07766,R,ugm-3,131.73201,R,ugm-3
05-01-2022,22:00,27.054,R,ugm-3 (Ref.eq),35.98969,R,ugm-3,67.47208,R,ugm-3,122.65550,R,ugm-3
05-01-2022,23:00,20.290,R,ugm-3 (Ref.eq),17.24440,R,ugm-3,53.13785,R,ugm-3,79.57889,R,ugm-3
05-01-2022,24:00,12.561,R,ugm-3 (Ref.eq),14.30646,R,ugm-3,48.27174,R,ugm-3,70.20801,R,ugm-3
06-01-2022,01:00,13.527,R,ugm-3 (Ref.eq),7.33659,R,ugm-3,44.35001,R,ugm-3,55.59928,R,ugm-3
06-01-2022,02:00,11.594,R,ugm-3 (Ref.eq),2.68724,R,ugm-3,31.76703,R,ugm-3,35.88741,R,ugm-3
06-01-2022,03:00,11.594,R,ugm-3 (Ref.eq),4.28678,R,ugm-3,34.04594,R,ugm-3,40.61891,R,ugm-3
06-01-2022,04:00,13.527,R,ugm-3 (Ref.eq),6.84606,R,ugm-3,30.12177,R,ugm-3,40.61891,R,ugm-3
06-01-2022,05:00,11.594,R,ugm-3 (Ref.eq),0.25593,R,ugm-3,8.69404,R,ugm-3,9.08646,R,ugm-3
06-01-2022,06:00,8.696,R,ugm-3 (Ref.eq),0.35190,R,ugm-3,9.38186,R,ugm-3,9.92143,R,ugm-3
06-01-2022,07:00,7.730,R,ugm-3 (Ref.eq),0.54385,R,ugm-3,10.02075,R,ugm-3,10.85463,R,ugm-3
06-01-2022,08:00,8.696,R,ugm-3 (Ref.eq),2.81520,R,ugm-3,22.35339,R,ugm-3,26.66998,R,ugm-3
06-01-2022,09:00,10.628,R,ugm-3 (Ref.eq),2.94317,R,ugm-3,25.64442,R,ugm-3,30.15721,R,ugm-3
06-01-2022,10:00,21.256,R,ugm-3 (Ref.eq),2.33534,R,ugm-3,23.04006,R,ugm-3,26.62086,R,ugm-3
06-01-2022,11:00,13.527,R,ugm-3 (Ref.eq),2.55927,R,ugm-3,20.87940,R,ugm-3,24.80357,R,ugm-3
06-01-2022,12:00,14.493,R,ugm-3 (Ref.eq),8.41361,R,ugm-3,26.49032,R,ugm-3,39.39101,R,ugm-3
06-01-2022,13:00,8.696,R,ugm-3 (Ref.eq),2.91118,R,ugm-3,16.55790,R,ugm-3,21.02164,R,ugm-3
06-01-2022,14:00,8.696,R,ugm-3 (Ref.eq),3.10312,R,ugm-3,17.14767,R,ugm-3,21.90573,R,ugm-3
06-01-2022,15:00,6.763,R,ugm-3 (Ref.eq),1.47158,R,ugm-3,14.24657,R,ugm-3,16.50297,R,ugm-3
06-01-2022,16:00,7.730,R,ugm-3 (Ref.eq),2.07941,R,ugm-3,19.20850,R,ugm-3,22.39688,R,ugm-3
06-01-2022,17:00,9.662,R,ugm-3 (Ref.eq),2.52728,R,ugm-3,27.55911,R,ugm-3,31.43423,R,ugm-3
06-01-2022,18:00,26.087,R,ugm-3 (Ref.eq),2.14339,R,ugm-3,25.00431,R,ugm-3,28.29080,R,ugm-3
06-01-2022,19:00,28.986,R,ugm-3 (Ref.eq),2.46330,R,ugm-3,29.67097,R,ugm-3,33.44798,R,ugm-3
06-01-2022,20:00,25.121,R,ugm-3 (Ref.eq),1.05570,R,ugm-3,14.34397,R,ugm-3,15.96269,R,ugm-3
06-01-2022,21:00,13.527,R,ugm-3 (Ref.eq),2.52728,R,ugm-3,12.18581,R,ugm-3,16.06092,R,ugm-3
06-01-2022,22:00,7.730,R,ugm-3 (Ref.eq),0.79977,R,ugm-3,7.76192,R,ugm-3,8.98822,R,ugm-3
06-01-2022,23:00,13.527,R,ugm-3 (Ref.eq),0.89575,R,ugm-3,8.35151,R,ugm-3,9.72496,R,ugm-3
06-01-2022,24:00,21.256,R,ugm-3 (Ref.eq),0.44787,R,ugm-3,6.77890,R,ugm-3,7.46563,R,ugm-3
07-01-2022,01:00,12.561,R,ugm-3 (Ref.eq),0.38457,R,ugm-3,2.81943,R,ugm-3,3.40910,R,ugm-3
07-01-2022,02:00,9.662,R,ugm-3 (Ref.eq),0.29911,R,ugm-3,3.14715,R,ugm-3,3.60578,R,ugm-3
07-01-2022,03:00,13.527,R,ugm-3 (Ref.eq),0.41662,R,ugm-3,2.70473,R,ugm-3,3.34354,R,ugm-3
07-01-2022,04:00,14.493,R,ugm-3 (Ref.eq),0.86529,R,ugm-3,3.14769,R,ugm-3,4.47445,R,ugm-3
07-01-2022,05:00,10.628,R,ugm-3 (Ref.eq),0.35253,R,ugm-3,3.83558,R,ugm-3,4.37611,R,ugm-3
07-01-2022,06:00,13.527,R,ugm-3 (Ref.eq),0.67300,R,ugm-3,6.54022,R,ugm-3,7.57214,R,ugm-3
07-01-2022,07:00,7.730,R,ugm-3 (Ref.eq),1.02553,R,ugm-3,9.63825,R,ugm-3,11.21070,R,ugm-3
07-01-2022,08:00,9.662,R,ugm-3 (Ref.eq),1.79468,R,ugm-3,15.34267,R,ugm-3,18.09447,R,ugm-3
07-01-2022,09:00,15.459,R,ugm-3 (Ref.eq),8.49266,R,ugm-3,40.22894,R,ugm-3,53.25084,R,ugm-3
07-01-2022,10:00,16.425,R,ugm-3 (Ref.eq),10.57577,R,ugm-3,38.60832,R,ugm-3,54.82427,R,ugm-3
07-01-2022,11:00,15.459,R,ugm-3 (Ref.eq),2.69201,R,ugm-3,19.81797,R,ugm-3,23.94567,R,ugm-3
07-01-2022,12:00,16.425,R,ugm-3 (Ref.eq),2.94840,R,ugm-3,15.83547,R,ugm-3,20.35628,R,ugm-3
07-01-2022,13:00,10.628,R,ugm-3 (Ref.eq),11.05649,R,ugm-3,22.03857,R,ugm-3,38.99161,R,ugm-3
07-01-2022,14:00,5.797,R,ugm-3 (Ref.eq),2.30744,R,ugm-3,26.35718,R,ugm-3,29.89521,R,ugm-3
07-01-2022,15:00,9.662,R,ugm-3 (Ref.eq),17.08147,R,ugm-3,40.87632,R,ugm-3,67.06754,R,ugm-3
07-01-2022,16:00,8.696,R,ugm-3 (Ref.eq),21.63226,R,ugm-3,50.86211,R,ugm-3,84.03110,R,ugm-3
07-01-2022,17:00,12.561,R,ugm-3 (Ref.eq),8.68495,R,ugm-3,61.12626,R,ugm-3,74.44300,R,ugm-3
07-01-2022,18:00,14.493,R,ugm-3 (Ref.eq),13.42802,R,ugm-3,59.36067,R,ugm-3,79.95001,R,ugm-3
07-01-2022,19:00,22.223,R,ugm-3 (Ref.eq),12.75502,R,ugm-3,64.42451,R,ugm-3,83.98193,R,ugm-3
07-01-2022,20:00,27.054,R,ugm-3 (Ref.eq),65.34544,R,ugm-3,86.99430,R,ugm-3,187.18923,R,ugm-3
07-01-2022,21:00,38.648,R,ugm-3 (Ref.eq),53.32751,R,ugm-3,77.59144,R,ugm-3,159.35916,R,ugm-3
07-01-2022,22:00,47.344,R,ugm-3 (Ref.eq),125.17865,R,ugm-3,85.23196,R,ugm-3,277.16987,R,ugm-3
07-01-2022,23:00,26.087,R,ugm-3 (Ref.eq),116.62189,R,ugm-3,76.86496,R,ugm-3,255.68269,R,ugm-3
07-01-2022,24:00,28.020,R,ugm-3 (Ref.eq),158.05968,R,ugm-3,74.79009,R,ugm-3,317.14488,R,ugm-3
08-01-2022,01:00,32.851,R,ugm-3 (Ref.eq),133.34129,R,ugm-3,66.93189,R,ugm-3,271.38569,R,ugm-3
08-01-2022,02:00,26.087,R,ugm-3 (Ref.eq),80.56126,R,ugm-3,56.43566,R,ugm-3,179.96120,R,ugm-3
08-01-2022,03:00,19.324,R,ugm-3 (Ref.eq),32.71463,R,ugm-3,53.50300,R,ugm-3,103.66474,R,ugm-3
08-01-2022,04:00,11.594,R,ugm-3 (Ref.eq),6.54935,R,ugm-3,32.09314,R,ugm-3,42.13534,R,ugm-3
08-01-2022,05:00,16.425,R,ugm-3 (Ref.eq),0.32105,R,ugm-3,7.58039,R,ugm-3,8.07266,R,ugm-3
08-01-2022,06:00,11.594,R,ugm-3 (Ref.eq),0.38526,R,ugm-3,9.94312,R,ugm-3,10.53383,R,ugm-3
08-01-2022,07:00,12.561,R,ugm-3 (Ref.eq),0.51367,R,ugm-3,7.62960,R,ugm-3,8.41722,R,ugm-3
08-01-2022,08:00,8.696,R,ugm-3 (Ref.eq),0.48157,R,ugm-3,8.51563,R,ugm-3,9.25402,R,ugm-3
08-01-2022,09:00,4.831,R,ugm-3 (Ref.eq),0.80262,R,ugm-3,9.94308,R,ugm-3,11.17374,R,ugm-3
08-01-2022,10:00,5.797,R,ugm-3 (Ref.eq),0.60999,R,ugm-3,8.76173,R,ugm-3,9.69704,R,ugm-3
08-01-2022,11:00,8.696,R,ugm-3 (Ref.eq),0.70630,R,ugm-3,9.79542,R,ugm-3,10.87840,R,ugm-3
08-01-2022,12:00,9.662,R,ugm-3 (Ref.eq),1.28419,R,ugm-3,6.64506,R,ugm-3,8.61412,R,ugm-3
08-01-2022,13:00,20.290,R,ugm-3 (Ref.eq),1.57313,R,ugm-3,6.25125,R,ugm-3,8.66334,R,ugm-3
08-01-2022,14:00,17.392,R,ugm-3 (Ref.eq),3.56362,R,ugm-3,15.60353,R,ugm-3,21.06767,R,ugm-3
08-01-2022,15:00,13.527,R,ugm-3 (Ref.eq),4.78359,R,ugm-3,16.88323,R,ugm-3,24.21797,R,ugm-3
08-01-2022,16:00,7.730,R,ugm-3 (Ref.eq),7.80143,R,ugm-3,22.19910,R,ugm-3,34.16113,R,ugm-3
08-01-2022,17:00,19.324,R,ugm-3 (Ref.eq),2.21522,R,ugm-3,17.52337,R,ugm-3,20.92000,R,ugm-3
08-01-2022,18:00,18.358,R,ugm-3 (Ref.eq),3.40309,R,ugm-3,16.48957,R,ugm-3,21.70757,R,ugm-3
08-01-2022,19:00,9.662,R,ugm-3 (Ref.eq),2.27943,R,ugm-3,10.87819,R,ugm-3,14.37327,R,ugm-3
08-01-2022,20:00,13.527,R,ugm-3 (Ref.eq),2.53627,R,ugm-3,11.91186,R,ugm-3,15.80075,R,ugm-3
08-01-2022,21:00,11.594,R,ugm-3 (Ref.eq),2.18312,R,ugm-3,10.13985,R,ugm-3,13.48725,R,ugm-3
08-01-2022,22:00,14.493,R,ugm-3 (Ref.eq),1.82997,R,ugm-3,6.94035,R,ugm-3,9.74626,R,ugm-3
08-01-2022,23:00,10.628,R,ugm-3 (Ref.eq),0.89893,R,ugm-3,4.82382,R,ugm-3,6.20217,R,ugm-3
08-01-2022,24:00,15.459,R,ugm-3 (Ref.eq),0.99524,R,ugm-3,5.16838,R,ugm-3,6.69440,R,ugm-3
09-01-2022,01:00,19.324,R,ugm-3 (Ref.eq),1.41511,R,ugm-3,6.37160,R,ugm-3,8.54140,R,ugm-3
09-01-2022,02:00,16.425,R,ugm-3 (Ref.eq),1.07205,R,ugm-3,6.63480,R,ugm-3,8.27859,R,ugm-3
09-01-2022,03:00,16.425,R,ugm-3 (Ref.eq),0.67539,R,ugm-3,5.56757,R,ugm-3,6.60316,R,ugm-3
09-01-2022,04:00,18.358,R,ugm-3 (Ref.eq),0.80404,R,ugm-3,8.91828,R,ugm-3,10.15112,R,ugm-3
09-01-2022,05:00,16.425,R,ugm-3 (Ref.eq),0.64323,R,ugm-3,6.79954,R,ugm-3,7.78581,R,ugm-3
09-01-2022,06:00,14.493,R,ugm-3 (Ref.eq),0.28945,R,ugm-3,5.86367,R,ugm-3,6.30749,R,ugm-3
09-01-2022,07:00,23.189,R,ugm-3 (Ref.eq),0.57891,R,ugm-3,10.93891,R,ugm-3,11.82655,R,ugm-3
09-01-2022,08:00,17.392,R,ugm-3 (Ref.eq),0.61107,R,ugm-3,7.34163,R,ugm-3,8.27859,R,ugm-3
09-01-2022,09:00,14.493,R,ugm-3 (Ref.eq),2.34779,R,ugm-3,9.60642,R,ugm-3,13.20632,R,ugm-3
09-01-2022,10:00,21.256,R,ugm-3 (Ref.eq),2.15482,R,ugm-3,14.43581,R,ugm-3,17.73983,R,ugm-3
09-01-2022,11:00,20.290,R,ugm-3 (Ref.eq),2.05834,R,ugm-3,13.69676,R,ugm-3,16.85284,R,ugm-3
09-01-2022,12:00,20.290,R,ugm-3 (Ref.eq),3.63425,R,ugm-3,12.56161,R,ugm-3,18.13405,R,ugm-3
09-01-2022,13:00,24.155,R,ugm-3 (Ref.eq),6.81824,R,ugm-3,20.29455,R,ugm-3,30.74903,R,ugm-3
09-01-2022,14:00,26.087,R,ugm-3 (Ref.eq),3.98803,R,ugm-3,15.56712,R,ugm-3,21.68201,R,ugm-3
09-01-2022,15:00,26.087,R,ugm-3 (Ref.eq),3.34480,R,ugm-3,16.50412,R,ugm-3,21.63273,R,ugm-3
09-01-2022,16:00,26.087,R,ugm-3 (Ref.eq),4.69558,R,ugm-3,24.14057,R,ugm-3,31.34036,R,ugm-3
09-01-2022,17:00,30.918,R,ugm-3 (Ref.eq),2.99102,R,ugm-3,27.73974,R,ugm-3,32.32591,R,ugm-3
09-01-2022,18:00,35.749,R,ugm-3 (Ref.eq),5.56394,R,ugm-3,40.15471,R,ugm-3,48.68597,R,ugm-3
09-01-2022,19:00,37.682,R,ugm-3 (Ref.eq),24.57139,R,ugm-3,43.73049,R,ugm-3,81.40609,R,ugm-3
09-01-2022,20:00,40.580,R,ugm-3 (Ref.eq),29.81372,R,ugm-3,63.09054,R,ugm-3,108.80427,R,ugm-3
09-01-2022,21:00,32.851,R,ugm-3 (Ref.eq),3.73073,R,ugm-3,42.42354,R,ugm-3,48.14392,R,ugm-3
09-01-2022,22:00,28.020,R,ugm-3 (Ref.eq),10.64546,R,ugm-3,45.37237,R,ugm-3,61.69518,R,ugm-3
09-01-2022,23:00,30.918,R,ugm-3 (Ref.eq),18.10693,R,ugm-3,49.15829,R,ugm-3,76.92186,R,ugm-3
09-01-2022,24:00,33.817,R,ugm-3 (Ref.eq),15.72698,R,ugm-3,43.39553,R,ugm-3,67.50990,R,ugm-3
10-01-2022,01:00,28.020,R,ugm-3 (Ref.eq),1.97606,R,ugm-3,23.87196,R,ugm-3,26.90188,R,ugm-3
10-01-2022,02:00,25.121,R,ugm-3 (Ref.eq),4.12395,R,ugm-3,25.90633,R,ugm-3,32.22963,R,ugm-3
10-01-2022,03:00,14.493,R,ugm-3 (Ref.eq),5.89596,R,ugm-3,38.21882,R,ugm-3,47.25916,R,ugm-3
10-01-2022,04:00,22.223,R,ugm-3 (Ref.eq),15.65813,R,ugm-3,44.95604,R,ugm-3,68.96483,R,ugm-3
10-01-2022,05:00,21.256,R,ugm-3 (Ref.eq),20.03982,R,ugm-3,43.21997,R,ugm-3,73.94727,R,ugm-3
10-01-2022,06:00,18.358,R,ugm-3 (Ref.eq),36.14901,R,ugm-3,45.84898,R,ugm-3,101.27668,R,ugm-3
10-01-2022,07:00,16.425,R,ugm-3 (Ref.eq),94.46425,R,ugm-3,54.99700,R,ugm-3,199.84016,R,ugm-3
10-01-2022,08:00,18.358,R,ugm-3 (Ref.eq),77.06633,R,ugm-3,60.26375,R,ugm-3,178.43048,R,ugm-3
10-01-2022,09:00,19.324,R,ugm-3 (Ref.eq),51.32386,R,ugm-3,52.22917,R,ugm-3,130.92466,R,ugm-3
10-01-2022,10:00,14.493,R,ugm-3 (Ref.eq),35.53686,R,ugm-3,56.75247,R,ugm-3,111.24156,R,ugm-3
10-01-2022,11:00,15.459,R,ugm-3 (Ref.eq),47.36100,R,ugm-3,60.96935,R,ugm-3,133.58853,R,ugm-3
10-01-2022,12:00,16.425,R,ugm-3 (Ref.eq),41.43282,R,ugm-3,60.73553,R,ugm-3,124.26496,R,ugm-3
10-01-2022,13:00,9.662,R,ugm-3 (Ref.eq),39.88634,R,ugm-3,58.07500,R,ugm-3,119.23320,R,ugm-3
10-01-2022,14:00,7.730,R,ugm-3 (Ref.eq),20.32979,R,ugm-3,40.50613,R,ugm-3,71.67804,R,ugm-3
10-01-2022,15:00,4.831,R,ugm-3 (Ref.eq),4.15617,R,ugm-3,22.68330,R,ugm-3,29.05600,R,ugm-3
10-01-2022,16:00,5.797,R,ugm-3 (Ref.eq),2.41638,R,ugm-3,19.92452,R,ugm-3,23.62958,R,ugm-3
10-01-2022,17:00,5.797,R,ugm-3 (Ref.eq),4.41392,R,ugm-3,27.12253,R,ugm-3,33.89045,R,ugm-3
10-01-2022,18:00,8.696,R,ugm-3 (Ref.eq),5.83152,R,ugm-3,36.39371,R,ugm-3,45.33525,R,ugm-3
10-01-2022,19:00,12.561,R,ugm-3 (Ref.eq),2.38416,R,ugm-3,26.23897,R,ugm-3,29.89463,R,ugm-3
10-01-2022,20:00,9.662,R,ugm-3 (Ref.eq),4.34948,R,ugm-3,36.69290,R,ugm-3,43.36201,R,ugm-3
10-01-2022,21:00,15.459,R,ugm-3 (Ref.eq),2.02976,R,ugm-3,23.42787,R,ugm-3,26.54011,R,ugm-3
10-01-2022,22:00,15.459,R,ugm-3 (Ref.eq),2.48082,R,ugm-3,23.52555,R,ugm-3,27.32941,R,ugm-3
10-01-2022,23:00,13.527,R,ugm-3 (Ref.eq),0.77324,R,ugm-3,19.43477,R,ugm-3,20.62039,R,ugm-3
10-01-2022,24:00,13.527,R,ugm-3 (Ref.eq),1.09543,R,ugm-3,22.39394,R,ugm-3,24.07356,R,ugm-3
11-01-2022,01:00,10.628,R,ugm-3 (Ref.eq),0.73157,R,ugm-3,14.41804,R,ugm-3,15.53976,R,ugm-3
11-01-2022,02:00,12.561,R,ugm-3 (Ref.eq),9.08010,R,ugm-3,38.49116,R,ugm-3,52.41378,R,ugm-3
11-01-2022,03:00,11.594,R,ugm-3 (Ref.eq),3.03387,R,ugm-3,26.26304,R,ugm-3,30.91491,R,ugm-3
11-01-2022,04:00,10.628,R,ugm-3 (Ref.eq),1.16191,R,ugm-3,13.18204,R,ugm-3,14.96361,R,ugm-3
11-01-2022,05:00,11.594,R,ugm-3 (Ref.eq),1.87196,R,ugm-3,17.32810,R,ugm-3,20.19840,R,ugm-3
11-01-2022,06:00,7.730,R,ugm-3 (Ref.eq),0.93598,R,ugm-3,14.66431,R,ugm-3,16.09946,R,ugm-3
11-01-2022,07:00,7.730,R,ugm-3 (Ref.eq),1.90424,R,ugm-3,19.45154,R,ugm-3,22.37133,R,ugm-3
11-01-2022,08:00,9.662,R,ugm-3 (Ref.eq),11.45771,R,ugm-3,42.38496,R,ugm-3,59.95320,R,ugm-3
11-01-2022,09:00,13.527,R,ugm-3 (Ref.eq),65.77691,R,ugm-3,57.52067,R,ugm-3,158.37719,R,ugm-3
11-01-2022,10:00,26.087,R,ugm-3 (Ref.eq),142.85015,R,ugm-3,67.89209,R,ugm-3,286.92594,R,ugm-3
11-01-2022,11:00,14.493,R,ugm-3 (Ref.eq),73.81344,R,ugm-3,55.81590,R,ugm-3,168.99493,R,ugm-3
11-01-2022,12:00,9.662,R,ugm-3 (Ref.eq),38.76255,R,ugm-3,49.40912,R,ugm-3,108.84419,R,ugm-3
11-01-2022,13:00,,,,,,,,,,,,
11-01-2022,14:00,14.493,R,ugm-3 (Ref.eq),50.63983,R,ugm-3,54.11210,R,ugm-3,131.75876,R,ugm-3
11-01-2022,15:00,9.662,R,ugm-3 (Ref.eq),55.70704,R,ugm-3,56.76269,R,ugm-3,142.17896,R,ugm-3
11-01-2022,16:00,14.493,R,ugm-3 (Ref.eq),72.13513,R,ugm-3,63.52530,R,ugm-3,174.13095,R,ugm-3
11-01-2022,17:00,28.020,R,ugm-3 (Ref.eq),99.24632,R,ugm-3,75.93302,R,ugm-3,228.10859,R,ugm-3
11-01-2022,18:00,23.189,R,ugm-3 (Ref.eq),132.84483,R,ugm-3,82.59136,R,ugm-3,286.28393,R,ugm-3
11-01-2022,19:00,28.986,R,ugm-3 (Ref.eq),90.75794,R,ugm-3,65.83625,R,ugm-3,204.99648,R,ugm-3
11-01-2022,20:00,24.155,R,ugm-3 (Ref.eq),39.02075,R,ugm-3,49.95152,R,ugm-3,109.78251,R,ugm-3
11-01-2022,21:00,23.189,R,ugm-3 (Ref.eq),41.82869,R,ugm-3,55.42427,R,ugm-3,119.56070,R,ugm-3